www.pogodaiklimat.ru

Погода и климат >> Архив погоды >> Россия >> Сахалинская область >> Северо-Курильск


АРХИВ ПОГОДЫ в Северо-Курильске

Время (UTC), дата Ветер
(напр.,м/с)
 
Видим.   Явления Облачность Т
(С)
Тd
(С)
f
(%)
Тe
(С)
Тes
(С)
Комфортность P
(гПа)
Po
(гПа)
Тmin
(С)
Tmax
(С)
R
(мм)
R24
(мм)
S
(см)
15 11.12 З 7-15
{17}
1000 м ливневой снег {метель} 10/10 600 м
[Cb cap]
-3.2 -7.4 73 -11 -11 прохладно 1012.0 1008.9
18 11.12 З 8-15
{17}
4000 м слабый ливневой снег {метель} 8/8 600 м
[Cb cap]
-2.8 -10.6 55 -11 -11 прохладно 1013.3 1010.3
21 11.12 З 6-12
{17}
4000 м слабый ливневой снег {метель} 8/8 600 м
[Cb cap]
-3.0 -10.4 57 -10 -10 прохладно 1014.9 1011.8 -4.3 3 25
00 12.12 З 5-9
{12}
21 км слабый ливневой снег {метель} 8/8 600 м
[Cb cap]
-2.6 -12.1 48 -9 -8 по сезону 1016.0 1012.9
03 12.12 З 6-10
{16}
20 км слабый ливневой снег {метель} 9/9 600 м
[Cb cap]
-2.7 -11.9 49 -9 -9 по сезону 1015.8 1012.8
06 12.12 СЗ 3-6
{13}
20 км слабый ливневой снег {метель} 8/8 600 м
[Cb cap]
-3.3 -13.6 45 -8 -8 по сезону 1016.7 1013.7
09 12.12 ЮЗ 1-3
{8}
4000 м {ливн. осадки} 9/9 600 м
[Cb cap]
-3.6 -14.1 44 -5 -5 по сезону 1017.5 1014.4 -1.8 0.5
12 12.12 З 2-4
{7}
4000 м в посл. час ливневой снег 9/9 600 м
[Cb cap]
-3.7 -14.2 44 -7 -7 по сезону 1017.3 1014.2
15 12.12 З 3-4
{8}
4000 м 9/9 600 м
[Cb cap]
-3.8 -13.3 48 -8 -8 по сезону 1015.3 1012.2
18 12.12 ЮЗ 1-2
{5}
4000 м 8/8 600 м
[Cb cap]
-6.5 -12.6 62 -9 -9 по сезону 1014.0 1010.9
21 12.12 штиль 0
{5}
4000 м 8/8 1000 м
[Cb cap Ci fib]
-5.4 -13.3 54 -6 -6 по сезону 1012.6 1009.5 -7.3 0.2 24
00 13.12 СЗ 2-4
{4}
35 км 9/4 1000 м
[Cb cap Ci]
-3.0 -10.4 57 -7 -6 по сезону 1010.8 1007.7
03 13.12 СЗ 4-9
{9}
12 км слабый ливневой снег 9/9 600 м
[Cb cap]
-4.2 -7.3 79 -10 -10 прохладно 1008.1 1005.0
06 13.12 СЗ 5-8
{11}
4300 м слабый ливневой снег {метель} 9/9 600 м
[Cb cap]
-4.0 -8.6 70 -11 -11 прохладно 1007.9 1004.8
09 13.12 СЗ 5-11
{11}
4000 м {ливн. осадки} 3/1 1000 м
[Sc Ci fib]
-3.1 -12.1 50 -9 -9 по сезону 1008.4 1005.3 -2.2 0.4
12 13.12 З 5-14
{14}
4000 м {ливн. осадки} 9/9 600 м
[Cb cap]
-2.7 -12.3 48 -9 -9 по сезону 1008.4 1005.3
15 13.12 З 6-8
{14}
4000 м слабый ливневой снег 10/10 600 м
[Cb cap]
-3.0 -13.0 46 -10 -10 по сезону 1008.6 1005.6
18 13.12 З 3-7
{12}
4000 м слабый ливневой снег 10/10 600 м
[Cb cap]
-3.5 -9.3 64 -8 -8 по сезону 1009.2 1006.1
21 13.12 З 2-3
{10}
4000 м слабый ливневой снег 9/9 1000 м
[Cb cap]
-2.6 -12.4 47 -6 -6 по сезону 1009.9 1006.8 -4.5 1 25
00 14.12 СЗ 3-7
{8}
1000 м ливневой снег 10/10 600 м
[Cb cap]
-3.7 -7.3 76 -9 -9 по сезону 1010.7 1007.6
03 14.12 З 3-7
{11}
29 км в посл. час ливневой снег {метель} 8/8 600 м
[Cb cap]
-1.9 -12.9 43 -6 -6 по сезону 1009.6 1006.5
06 14.12 З 4-6
{11}
24 км слабая крупа {ливн. осадки, метель} 9/9 600 м
[Cb cap]
-2.9 -10.5 56 -8 -8 по сезону 1009.5 1006.4
09 14.12 З 3-6
{10}
4000 м слабый ливневой снег 9/9 600 м
[Cb cap]
-3.0 -10.0 58 -8 -8 по сезону 1009.7 1006.6 -1.8 2
12 14.12 З 3-6
{11}
4000 м в посл. час ливневой снег {метель} 9/9 600 м
[Cb cap]
-2.6 -11.2 52 -7 -7 по сезону 1010.0 1006.9
15 14.12 З 4-9
{9}
4000 м слабый ливневой снег 8/8 600 м
[Cb cap]
-2.9 -11.1 53 -8 -8 по сезону 1009.9 1006.8
18 14.12 З 3-7
{13}
4000 м слабый ливневой снег {метель} 9/9 600 м
[Cb cap]
-3.0 -12.7 47 -7 -7 по сезону 1009.4 1006.3
21 14.12 СЗ 1-3
{12}
4000 м слабая крупа {ливн. осадки} 9/9 600 м
[Cb cap]
-3.7 -9.3 65 -6 -6 по сезону 1009.2 1006.1 -3.8 0.8 27
00 15.12 З 3-7
{8}
18 км слабый ливневой снег 8/8 600 м
[Cb cap]
-2.7 -10.5 55 -7 -7 по сезону 1009.2 1006.2 -4.1
03 15.12 З 2-9
{10}
11 км слабый ливневой снег 8/8 600 м
[Cb cap]
-2.8 -11.0 53 -6 -6 по сезону 1007.9 1004.8
06 15.12 Ю 1-6
{9}
2300 м ливневой снег 10/10 600 м
[Cb cap]
-5.6 -7.2 88 -8 -8 по сезону 1007.9 1004.8
09 15.12 З 3-5
{9}
4000 м в посл. час ливневой снег 8/4 600 м
[Cb cap Ac trans]
-3.7 -14.0 45 -8 -8 по сезону 1007.8 1004.7 -1.9 3
12 15.12 З 2-4
{6}
4000 м слабый ливневой снег 9/9 600 м
[Cb cap]
-4.3 -9.6 66 -8 -8 по сезону 1007.3 1004.3
15 15.12 З 4-6
{12}
4000 м слабый ливневой снег {метель} 8/8 600 м
[Cb cap]
-3.4 -12.7 49 -9 -9 по сезону 1006.9 1003.9
18 15.12 З 3-7
{9}
2000 м слабый ливневой снег {метель} 10/10 600 м
[Cb cap]
-3.8 -11.2 56 -9 -9 по сезону 1007.3 1004.2
21 15.12 ЮЗ 2-5
{12}
4000 м в посл. час ливневой снег 8/8 600 м
[Cb cap]
-3.4 -11.3 54 -7 -7 по сезону 1007.8 1004.8 -5.5 4 30
00 16.12 З 4-6
{10}
19 км слабый ливневой снег 8/8 600 м
[Cb cap]
-2.4 -11.1 51 -8 -8 по сезону 1008.3 1005.3
03 16.12 З 5-6
{9}
18 км слабый ливневой снег 9/9 600 м
[Cb cap]
-2.0 -12.1 46 -8 -8 по сезону 1008.0 1004.9
06 16.12 СЗ 5-10
{10}
4900 м слабый ливневой снег 10/10 600 м
[Cb cap]
-3.4 -7.8 72 -10 -10 по сезону 1009.5 1006.4
09 16.12 СЗ 4-6
{10}
4000 м слабый ливневой снег 10/10 600 м
[Cb cap]
-3.1 -11.4 53 -9 -9 по сезону 1010.7 1007.6 -1.2 2
12 16.12 З 3-4
{9}
4000 м в посл. час ливневой снег 10/10 600 м
[Cb cap]
-3.0 -12.1 49 -8 -8 по сезону 1011.4 1008.3
15 16.12 З 1-1
{7}
4000 м 9/9 600 м
[Cb cap]
-4.6 -12.5 54 -6 -6 по сезону 1011.6 1008.5
18 16.12 З 1-1
{4}
4000 м 8/8 600 м
[Cb cap]
-3.2 -11.5 53 -5 -5 по сезону 1012.1 1009.1
21 16.12 штиль 0-2
{5}
4000 м слабый ливневой снег 10/4 600 м
[Cb cap Ac trans Ci sp]
-3.6 -8.9 67 -4 -4 по сезону 1012.8 1009.7 -5.8 0.4 33
00 17.12 штиль 0
{3}
50 км {ливн. осадки} 8/1 1000 м
[Sc Ci fib]
-2.3 -11.6 49 -3 -2 по сезону 1013.1 1010.1
03 17.12 ЮВ 3-5
{5}
45 км 9/4 1000 м
[Sc Ac trans Ci fib]
-1.8 -9.4 56 -6 -6 по сезону 1011.5 1008.4
06 17.12 Ю 2-3
{6}
1300 м ливневой снег 10/10 600 м
[Cb cap]
-2.3 -4.7 84 -6 -6 по сезону 1010.7 1007.6
09 17.12 ЮВ 7-12
{11}
2000 м слабый ливневой снег 10/10 600 м
[Cb cap]
+0.8 -0.5 91 -6 -6 по сезону 1007.4 1004.4 +0.8 5
12 17.12 ЮВ 5-9
{12}
2000 м снег {ливн. осадки} 10/10 300 м
[Frnb Ns]
-0.1 -0.9 94 -6 -6 по сезону 1005.1 1002.0
15 17.12 ЮВ 4-8
{11}
2000 м снег 10/10 300 м
[Frnb Ns]
+0.3 -0.4 95 -5 -5 по сезону 1000.2 997.3
18 17.12 Ю 5-8
{9}
4000 м слабый дождь {снег} 10/10 300 м
[Frnb Ns]
+1.2 +0.5 95 -5 -5 по сезону 995.3 992.3
21 17.12 Ю 1-2
{10}
4000 м слабый дождь 10/10 300 м
[Frnb Ns]
+1.8 +1.1 95 -0 -0 тепло 991.6 988.6 -0.2 25 35
00 18.12 СЗ 1-1
{3}
21 км {дождь} 10/5 600 м
[Sc Ac As]
+1.7 +1.0 95 -0 0 тепло 986.6 983.7
03 18.12 З 9-18
{17}
8000 м слабый ливневой снег 9/9 600 м
[Cb cap]
+1.8 -3.4 68 -5 -5 по сезону 981.8 978.8
06 18.12 З 13-26
{27}
1000 м ливневой снег {метель} 10/10 600 м
[Cb cap]
-2.7 -5.0 84 -13 -13 холодно 981.2 978.3
09 18.12 З 14-28
{31}
1000 м слабый ливневой снег {метель} 8/8 600 м
[Cb cap]
-3.6 -7.5 74 -14 -14 холодно 979.6 976.6 +3.4 3
12 18.12 З 8-22
{31}
2000 м слабый ливневой снег {метель} 9/9 600 м
[Cb cap]
-3.9 -6.7 81 -12 -12 прохладно 985.2 982.2

 

Местоположение метеостанции Северо-Курильск (Сахалинская область, Россия): широта 50.68 долгота 156.10 высота над уровнем моря 23 м.

В архиве по умолчанию представлена погода в Северо-Курильске за последнюю неделю. Архивные данные за месяц целиком и за предыдущие месяцы, начиная с января 2011 года, Вы можете получить, выбрав интересующий диапазон дат из раскрывающегося списка и нажав кнопку "Ввод!".


*Определитесь, кто Вы:
робот инопланетянин человек

Внимание! Время в таблицах - всемирное. Для получения местного времени необходимо прибавить поправку, которая в Северо-Курильске равна 12 ч.

Смотрите также архив погоды в соседних городах и на ближайших метеорологических станциях:

Погода на Мысе Лопатка (Камчатский край, Россия) (41 км)
Погода в Озерной (Камчатский край, Россия) (91 км)
Погода в Водопадной (Камчатский край, Россия) (183 км)
Погода в Большерецке (Камчатский край, Россия) (240 км)
Погода в Начиках (Камчатский край, Россия) (293 км)
Погода в Петропавловск-Камчатском (Камчатский край, Россия) (298 км)
Погода в Петропавловском Маяке (Камчатский край, Россия) (303 км)
Погода в Сосновке (Камчатский край, Россия) (307 км)
Погода в Петропавловск-Камч. 2 (Камчатский край, Россия) (314 км)
Погода в Соболево (Камчатский край, Россия) (403 км)

Пояснения к столбцам:

Ветер - указаны скорость ветра в м/с - средняя за 10 мин, порывы в срок и между сроками (в фигурных скобках) и направление, откуда дует ветер: С - северный, СВ - северо-восточный, В - восточный, ЮВ - юго-восточный, Ю - южный, ЮЗ - юго-западный, З - западный, СЗ - северо-западный.
Видимость - горизонтальная дальность видимости в метрах или километрах. При видимости от 1 до 10 км при отсутствии осадков обычно наблюдается дымка, при ухудшении видимости до 1 км и менее - туман. В сухую погоду видимость может ухудшаться дымом, пылью или мглою.
Явления - указаны атмосферные явления, наблюдавшиеся в срок или в последний час перед сроком; фигурными скобками обозначены явления, наблюдавшиеся между сроками (за 1-3 часа до срока); квадратными скобками обозначены град или гололедные отложения с указанием их диаметра в мм.
Облачность - указаны через наклонную черту общая и нижняя облачность в баллах и высота нижней границы облаков в метрах; квадратными скобками обозначены формы облаков: Ci - перистые, Cs - перисто-слоистые, Cc - перисто-кучевые, Ac - высококучевые, As - высокослоистые, Sc - слоисто-кучевые, Ns - слоисто-дождевые, Cu - кучевые, Cb - кучево-дождевые. Подробнее классификацию облаков см. в Атласе облаков (PDF).
T - Температура воздуха - температура, измеренная на высоте 2 м над землей.
Td - Температура точки росы - температура, при понижении до которой содержащийся в воздухе водяной пар достигнет насыщения.
f - Относительная влажность воздуха - влажноcть воздуха, измеренная на высоте 2 м над землей.
Te - Эффективная температура - температура, которую ощущает одетый по сезону человек в тени. Характеристика душности погоды. При расчете учитывается влияние влажности воздуха и скорости ветра на теплоощущения человека.
Tes - Эффективная температура на солнце - температура, которую ощущает человек, с поправкой на солнечный нагрев. Характеристика знойности погоды. Зависит от высоты солнца над горизонтом, облачности и скорости ветра. Ночью, в пасмурную погоду, а также при ветре 12 м/с и более поправка равна нулю.
P - Атмосферное давление - приведенное к уровню моря атмосферное давление.
Po - Атмосферное давление - измеренное на уровне метеостанции атмосферное давление.
Tmin - Минимальная температура - минимум температуры воздуха на высоте 2 м над землей.
Tmax - Максимальная температура - максимум температуры воздуха на высоте 2 м над землей.
R - Количество осадков - Количество выпавших осадков за период времени, мм. При наведении курсора мыши на число - период времени, за который выпало указанное количество осадков.
R24 - Количество осадков - Количество выпавших осадков за 24 часа, мм.
S - Снежный покров - Высота снежного покрова, см. При наведении курсора мыши на число - состояние снежного покрова и степень покрытия местности в баллах.